Wind_Speed
33 31 30 30 32 31 26 24 23 22 21 21 22 22 22 21 20 19 19 17 15 14
32 33 33 29 30 34 31 29 28 26 26 25 24 24 24 25 24 22 19 16 15 12
31 27 32 32 31 37 31 32 31 30 29 27 26 25 26 24 21 19 16 13 10 9
27 27 28 27 22 28 30 32 32 33 31 30 28 28 23 21 18 15 14 13 10 9
26 28 27 23 24 28 28 26 32 31 29 29 25 21 20 19 18 16 14 12 10 8
24 26 26 25 26 28 32 32 32 32 29 25 22 21 19 19 17 14 11 10 9 8
29 28 27 28 30 29 31 34 34 29 27 24 21 17 17 17 15 14 12 11 9 7
28 29 32 33 31 32 34 32 30 28 25 23 19 17 17 14 13 13 12 10 9 5
29 35 36 36 36 35 32 31 28 27 25 21 18 18 16 14 13 12 11 10 7 4
35 35 36 37 36 35 34 30 28 25 24 21 22 17 16 14 13 11 10 8 6 4
36 35 34 37 40 37 34 31 25 24 24 24 20 17 14 13 12 11 9 7 5 4
35 39 38 33 32 32 26 25 24 25 23 22 18 15 14 13 11 9 7 6 4 4
34 44 36 31 27 26 24 25 23 22 21 19 19 14 11 9 10 8 6 4 4 4
37 37 34 32 28 29 29 29 25 22 18 16 14 12 9 8 7 6 4 2 1 1
Wind_Direction
163 156 154 161 159 150 153 153 155 154 155 158 155 149 147 142 136 131 125 121 113 102
159 159 160 160 154 155 170 171 165 164 160 158 154 149 147 139 133 131 124 117 110 103
162 164 164 166 170 170 173 167 167 164 160 155 145 144 141 131 122 121 118 113 113 111
165 159 160 161 168 159 162 163 160 157 154 150 144 141 136 128 124 127 127 129 125 122
169 166 160 155 149 146 140 147 155 152 145 143 143 140 142 136 133 140 137 135 137 130
169 158 155 153 162 161 157 151 150 151 149 143 142 139 137 134 137 135 128 129 125 125
164 166 158 154 154 154 158 152 149 150 141 138 133 132 135 135 133 134 134 132 127 127
159 154 148 144 151 154 153 148 144 138 131 130 136 141 133 133 140 131 129 128 123 135
144 139 141 147 151 151 142 137 133 133 136 133 131 138 140 146 141 137 133 128 122 108
129 125 133 145 145 137 133 131 129 137 143 135 130 134 132 137 133 129 133 130 141 131
134 126 127 131 132 130 134 137 133 133 137 131 129 135 135 137 139 135 130 129 128 106
125 124 127 121 123 125 129 132 130 131 134 131 128 138 141 142 136 128 120 116 109 69
122 123 122 118 118 126 128 124 123 123 128 133 140 144 142 136 134 128 110 86 52 32
118 123 126 129 132 133 131 129 123 120 130 136 144 146 138 123 108 107 108 99 58 303
Height
736 741 748 759 763 766 783 788 786 788 794 804 807 808 811 815 819 823 827 833 835 838
735 741 750 760 764 766 778 782 783 789 796 805 807 808 813 814 819 824 828 833 834 839
736 742 749 757 763 764 775 777 782 790 796 804 806 809 814 818 821 826 830 833 837 840
738 744 751 755 763 765 773 777 784 789 798 802 805 809 816 817 821 829 832 835 838 842
738 745 751 756 763 767 773 783 784 794 802 805 810 812 815 818 824 830 832 835 839 843
739 743 750 756 763 770 777 783 785 795 802 806 812 815 820 821 825 831 835 839 842 845
737 744 748 757 765 771 780 784 789 799 801 808 814 820 822 825 831 834 837 841 844 846
738 743 751 758 763 773 780 786 793 799 804 810 818 823 827 832 835 836 839 842 844 846
738 742 750 757 766 774 781 789 795 802 809 815 818 822 827 834 836 839 840 842 844 845
741 746 752 761 769 777 786 794 802 810 813 814 817 824 831 837 837 840 842 843 846 847
741 748 759 766 773 783 791 798 805 811 813 816 821 826 832 837 838 839 841 843 846 845
747 755 764 772 780 788 797 804 809 811 816 817 824 831 834 838 839 840 842 843 844 845
756 757 771 780 785 794 801 805 811 816 818 822 827 833 839 839 839 839 839 842 841 842
762 769 776 784 792 797 802 808 813 818 826 830 833 835 836 837 836 837 841 842 842 843